Regional Weather Roundup
Issued by NWS

Home | Current Version | Previous Version | Text Only | Print | Product List | Glossary Off
Versions: 1 2 3 4 5 6 7 8 9 10 11 12 13 14 15 16 17 18 19 20 21 22 23 24 25 26 27 28 29 30 31 32 33 34 35 36 37 38 39 40 41 42 43 44 45 46 47 48 49 50

788
ASUS43 KLMK 231002
RWRKY
KENTUCKY REGIONAL WEATHER ROUNDUP
NATIONAL WEATHER SERVICE LOUISVILLE KY
600 AM EDT MON OCT 23 2017

NOTE "FAIR" INDICATES FEW OR NO CLOUDS BELOW 12,000 FEET
WITH NO SIGNIFICANT WEATHER AND/OR OBSTRUCTIONS TO VISIBILITY.

KYZ001>023-026-027-061>063-070>075-231100-
WESTERN AND SOUTH CENTRAL KENTUCKY

CITY           SKY/WX    TMP DP  RH WIND       PRES   REMARKS
PADUCAH        CLOUDY    54  51  90 NW5       29.87S FOG
HENDERSON      LGT RAIN  56  55  97 SW10      29.86R
OWENSBORO      LGT RAIN  59  57  93 W13       29.84R
HOPKINSVILLE   NOT AVBL
BOWLING GREEN  HVY RAIN  64  63  96 NW5       29.84S FOG
GLASGOW        NOT AVBL
$$

KYZ024-025-028>034-038-045-046-053-231100-
NORTH CENTRAL KENTUCKY

CITY           SKY/WX    TMP DP  RH WIND       PRES   REMARKS
LOUISVILLE/SDF RAIN      64  61  90 E8        29.84F
LOUISVILLE/LOU LGT RAIN  64  61  90 E8        29.86F
FORT KNOX      LGT RAIN  64  62  93 E12       29.81F
$$

KYZ035>037-039>044-047>052-055>060-089>105-231100-
NORTHEAST KENTUCKY

CITY           SKY/WX    TMP DP  RH WIND       PRES   REMARKS
LEXINGTON      MOCLDY    67  56  67 SE8       29.91F
COVINGTON      CLOUDY    65  55  70 SE9       29.89F
FRANKFORT      CLOUDY    66  55  67 E6        29.88F
$$

KYZ054-064>069-076>088-106>120-231100-
SOUTHEAST KENTUCKY

CITY           SKY/WX    TMP DP  RH WIND       PRES   REMARKS
JACKSON        CLOUDY    65  54  67 VRB5      29.96F
LONDON         LGT RAIN  66  57  72 SE5       29.92F
SOMERSET       NOT AVBL
MIDDLESBORO    CLOUDY    69  59  72 S5        29.95F
MONTICELLO     LGT RAIN  63  60  90 VRB5      29.90F
$$





USA.gov is the U.S. government's official web portal to all federal, state and local government web resources and services.